| time (UTC) | temp F | wind direction | speed MPH | gust MPH | rain 1hr in | rain 24hr in | rain mn in | humidity % | barometer mb |
| 20260903075032 | 56 | 120 | 9.0 | 12.0 | 0.00 | 0.45 | 0.00 | 94 | |
| 20260903074044 | 56 | 120 | 7.0 | 11.0 | 0.00 | 0.45 | 0.00 | 94 | |
| 20260903073029 | 56 | 146 | 8.0 | 11.0 | 0.00 | 0.45 | 0.00 | 95 | |
| 20260903072036 | 56 | 145 | 9.0 | 15.0 | 0.00 | 0.45 | 0.00 | 95 | |
| 20260903071045 | 56 | 125 | 8.0 | 11.0 | 0.00 | 0.45 | 0.00 | 95 | |
| 20260903070034 | 56 | 106 | 7.0 | 10.0 | 0.01 | 0.45 | 0.00 | 96 | |
| 20260903065045 | 56 | 133 | 7.0 | 9.0 | 0.01 | 0.45 | 0.45 | 96 | |
| 20260903064031 | 56 | 145 | 5.0 | 9.0 | 0.01 | 0.45 | 0.45 | 96 | |
| 20260903063021 | 56 | 140 | 7.0 | 9.0 | 0.01 | 0.45 | 0.45 | 96 | |
| 20260903062028 | 56 | 125 | 7.0 | 10.0 | 0.02 | 0.45 | 0.45 | 96 | |
| 20260903061036 | 56 | 124 | 6.0 | 8.0 | 0.02 | 0.45 | 0.45 | 96 | |
| 20260903060025 | 56 | 119 | 5.0 | 9.0 | 0.01 | 0.44 | 0.44 | 97 | |
| 20260903055033 | 56 | 112 | 5.0 | 7.0 | 0.01 | 0.44 | 0.44 | 97 | |
| 20260903054022 | 56 | 135 | 5.0 | 7.0 | 0.01 | 0.44 | 0.44 | 96 | |
| 20260903053030 | 57 | 140 | 4.0 | 7.0 | 0.01 | 0.44 | 0.44 | 96 | |
| 20260903052019 | 57 | 159 | 5.0 | 7.0 | 0.00 | 0.43 | 0.43 | 95 | |
| 20260903051048 | 57 | 190 | 6.0 | 10.0 | 0.00 | 0.43 | 0.43 | 95 | |
| 20260903050036 | 56 | 139 | 6.0 | 8.0 | 0.00 | 0.43 | 0.43 | 96 | |
| 20260903045025 | 56 | 112 | 5.0 | 7.0 | 0.00 | 0.43 | 0.43 | 97 | |
| 20260903044032 | 56 | 114 | 5.0 | 7.0 | 0.00 | 0.43 | 0.43 | 97 | |
| 20260903043022 | 56 | 100 | 5.0 | 6.0 | 0.00 | 0.43 | 0.43 | 96 | |
| 20260903042030 | 56 | 119 | 5.0 | 7.0 | 0.00 | 0.43 | 0.43 | 96 | |
| 20260903041019 | 56 | 108 | 5.0 | 9.0 | 0.00 | 0.43 | 0.43 | 95 | |
| 20260903040027 | 57 | 130 | 5.0 | 7.0 | 0.00 | 0.43 | 0.43 | 94 | |
| 20260903035034 | 57 | 127 | 9.0 | 13.0 | 0.00 | 0.43 | 0.43 | 93 | |
| 20260903034044 | 57 | 130 | 6.0 | 9.0 | 0.00 | 0.43 | 0.43 | 93 | |
| 20260903033032 | 57 | 130 | 5.0 | 7.0 | 0.00 | 0.43 | 0.43 | 93 | |
| 20260903032021 | 58 | 133 | 5.0 | 7.0 | 0.00 | 0.43 | 0.43 | 93 | |
| 20260903031029 | 58 | 112 | 3.0 | 5.0 | 0.00 | 0.43 | 0.43 | 93 | |
| 20260903030056 | 0 | 113 | 3.0 | 3.0 | 0.00 | 0.43 | 0.43 | ||
| 20260903025103 | 0 | 108 | 3.0 | 4.0 | 0.00 | 0.43 | 0.43 | ||
| 20260903024150 | 59 | 95 | 5.0 | 6.0 | 0.00 | 0.43 | 0.43 | 92 | |
| 20260903023233 | 59 | 113 | 5.0 | 6.0 | 0.00 | 0.43 | 0.43 | 93 | |
| 20260903022032 | 59 | 126 | 4.0 | 6.0 | 0.00 | 0.43 | 0.43 | 93 | |
| 20260903021041 | 60 | 159 | 4.0 | 5.0 | 0.00 | 0.43 | 0.43 | 91 | |
| 20260903020029 | 60 | 155 | 4.0 | 5.0 | 0.00 | 0.43 | 0.43 | 92 | |
| 20260903015056 | 59 | 158 | 3.0 | 6.0 | 0.01 | 0.43 | 0.43 | 92 | |
| 20260903014026 | 59 | 149 | 4.0 | 5.0 | 0.02 | 0.43 | 0.43 | 92 | |
| 20260903013034 | 59 | 153 | 4.0 | 6.0 | 0.02 | 0.43 | 0.43 | 93 | |
| 20260903012024 | 59 | 165 | 5.0 | 8.0 | 0.02 | 0.43 | 0.43 | 94 | |
| 20260903011032 | 59 | 147 | 5.0 | 9.0 | 0.02 | 0.43 | 0.43 | 94 | |
| 20260903010020 | 59 | 170 | 5.0 | 7.0 | 0.02 | 0.43 | 0.43 | 93 | |
| 20260903005029 | 60 | 152 | 6.0 | 10.0 | 0.01 | 0.42 | 0.42 | 92 | |
| 20260903004036 | 60 | 183 | 6.0 | 9.0 | 0.00 | 0.41 | 0.41 | 93 | |
| 20260903003026 | 60 | 165 | 4.0 | 7.0 | 0.00 | 0.41 | 0.41 | 94 | |
| 20260903002034 | 61 | 163 | 4.0 | 6.0 | 0.00 | 0.41 | 0.41 | 94 | |
| 20260903001042 | 60 | 168 | 5.0 | 8.0 | 0.02 | 0.41 | 0.41 | 93 | |
| 20260903000052 | 60 | 177 | 5.0 | 6.0 | 0.12 | 0.41 | 0.41 | 93 | |
| 20260902235020 | 60 | 171 | 6.0 | 10.0 | 0.15 | 0.41 | 0.41 | 95 | |
| 20260902234029 | 59 | 166 | 4.0 | 5.0 | 0.17 | 0.41 | 0.41 | 96 | |
| 20260902233054 | 59 | 177 | 4.0 | 6.0 | 0.19 | 0.41 | 0.41 | 98 | |
| 20260902232046 | 59 | 168 | 7.0 | 11.0 | 0.19 | 0.41 | 0.41 | 98 | |
| 20260902231033 | 59 | 179 | 9.0 | 13.0 | 0.17 | 0.39 | 0.39 | 97 | |
| 20260902230024 | 59 | 177 | 6.0 | 9.0 | 0.07 | 0.29 | 0.29 | 97 | |
| 20260902225032 | 59 | 147 | 8.0 | 10.0 | 0.05 | 0.26 | 0.26 | 96 | |
| 20260902224019 | 59 | 149 | 10.0 | 15.0 | 0.03 | 0.24 | 0.24 | 96 | |
| 20260902223027 | 60 | 153 | 9.0 | 15.0 | 0.01 | 0.22 | 0.22 | 95 | |
| 20260902222035 | 60 | 145 | 8.0 | 11.0 | 0.02 | 0.22 | 0.22 | 95 | |
| 20260902221024 | 60 | 159 | 10.0 | 13.0 | 0.02 | 0.22 | 0.22 | 93 | |
| 20260902220032 | 60 | 139 | 11.0 | 16.0 | 0.02 | 0.22 | 0.22 | 93 | |
| 20260902215024 | 60 | 166 | 11.0 | 15.0 | 0.02 | 0.21 | 0.21 | 91 | |
| 20260902214050 | 60 | 143 | 10.0 | 17.0 | 0.02 | 0.21 | 0.21 | 90 | |
| 20260902213019 | 60 | 124 | 13.0 | 19.0 | 0.02 | 0.21 | 0.21 | 90 | |
| 20260902212026 | 60 | 148 | 13.0 | 19.0 | 0.01 | 0.20 | 0.20 | 89 | |
| 20260902211035 | 60 | 135 | 13.0 | 22.0 | 0.01 | 0.20 | 0.20 | 89 | |
| 20260902210024 | 60 | 156 | 13.0 | 18.0 | 0.01 | 0.20 | 0.20 | 89 | |
| 20260902205032 | 61 | 122 | 12.0 | 19.0 | 0.00 | 0.19 | 0.19 | 86 | |
| 20260902204041 | 61 | 151 | 12.0 | 17.0 | 0.00 | 0.19 | 0.19 | 87 | |
| 20260902203029 | 60 | 146 | 10.0 | 13.0 | 0.01 | 0.19 | 0.19 | 88 | |
| 20260902202036 | 60 | 128 | 10.0 | 15.0 | 0.01 | 0.19 | 0.19 | 88 | |
| 20260902201025 | 60 | 122 | 11.0 | 15.0 | 0.02 | 0.19 | 0.19 | 88 | |
| 20260902200033 | 60 | 140 | 10.0 | 13.0 | 0.02 | 0.19 | 0.19 | 92 | |
| 20260902195024 | 59 | 123 | 9.0 | 13.0 | 0.04 | 0.19 | 0.19 | 93 | |
| 20260902194030 | 59 | 130 | 9.0 | 13.0 | 0.05 | 0.19 | 0.19 | 93 | |
| 20260902193037 | 59 | 117 | 10.0 | 14.0 | 0.08 | 0.18 | 0.18 | 94 | |
| 20260902192045 | 58 | 121 | 10.0 | 13.0 | 0.11 | 0.18 | 0.18 | 94 | |
| 20260902191035 | 58 | 102 | 9.0 | 14.0 | 0.12 | 0.17 | 0.17 | 95 | |
| 20260902190045 | 58 | 95 | 8.0 | 13.0 | 0.14 | 0.17 | 0.17 | 95 | |
| 20260902185032 | 58 | 92 | 6.0 | 8.0 | 0.12 | 0.15 | 0.15 | 95 | |
| 20260902184021 | 58 | 110 | 6.0 | 8.0 | 0.11 | 0.14 | 0.14 | 94 | |
| 20260902183029 | 59 | 123 | 6.0 | 8.0 | 0.08 | 0.10 | 0.10 | 94 | |
| 20260902182037 | 59 | 123 | 5.0 | 9.0 | 0.05 | 0.07 | 0.07 | 92 | |
| 20260902181026 | 59 | 104 | 5.0 | 8.0 | 0.04 | 0.05 | 0.05 | 91 | |
| 20260902180034 | 59 | 123 | 5.0 | 8.0 | 0.03 | 0.03 | 0.03 | 90 | |
| 20260902175024 | 59 | 120 | 5.0 | 8.0 | 0.03 | 0.03 | 0.03 | 91 | |
| 20260902174031 | 59 | 118 | 6.0 | 8.0 | 0.03 | 0.03 | 0.03 | 91 | |
| 20260902173021 | 59 | 144 | 5.0 | 9.0 | 0.02 | 0.02 | 0.02 | 90 | |
| 20260902172028 | 59 | 157 | 7.0 | 10.0 | 0.02 | 0.02 | 0.02 | 89 | |
| 20260902171057 | 59 | 155 | 7.0 | 9.0 | 0.01 | 0.01 | 0.01 | 88 | |
| 20260902170026 | 60 | 165 | 6.0 | 13.0 | 0.00 | 0.00 | 0.00 | 85 | |
| 20260902165033 | 61 | 147 | 7.0 | 11.0 | 0.00 | 0.00 | 0.00 | 83 | |
| 20260902164023 | 62 | 164 | 6.0 | 9.0 | 0.00 | 0.00 | 0.00 | 80 | |
| 20260902163033 | 63 | 197 | 5.0 | 6.0 | 0.00 | 0.00 | 0.00 | 77 | |
| 20260902162020 | 63 | 172 | 4.0 | 6.0 | 0.00 | 0.00 | 0.00 | 74 | |
| 20260902161029 | 63 | 165 | 5.0 | 8.0 | 0.00 | 0.00 | 0.00 | 74 | |
| 20260902160036 | 63 | 142 | 4.0 | 7.0 | 0.00 | 0.00 | 0.00 | 73 | |
| 20260902155026 | 63 | 130 | 4.0 | 6.0 | 0.00 | 0.00 | 0.00 | 73 | |
| 20260902154034 | 62 | 153 | 4.0 | 6.0 | 0.00 | 0.00 | 0.00 | 75 | |
| 20260902153023 | 62 | 128 | 5.0 | 8.0 | 0.00 | 0.00 | 0.00 | 76 | |
| 20260902152031 | 62 | 127 | 3.0 | 7.0 | 0.00 | 0.00 | 0.00 | 78 | |
| 20260902151020 | 61 | 154 | 5.0 | 7.0 | 0.00 | 0.00 | 0.00 | 78 | |
| 20260902150028 | 61 | 137 | 4.0 | 5.0 | 0.00 | 0.00 | 0.00 | 80 | |
| 20260902145036 | 61 | 105 | 2.0 | 3.0 | 0.00 | 0.00 | 0.00 | 80 | |
| 20260902144025 | 61 | 119 | 4.0 | 6.0 | 0.00 | 0.00 | 0.00 | 80 | |
| 20260902143033 | 60 | 131 | 3.0 | 4.0 | 0.00 | 0.00 | 0.00 | 81 | |
| 20260902142022 | 60 | 107 | 3.0 | 5.0 | 0.00 | 0.00 | 0.00 | 81 | |
| 20260902141033 | 60 | 99 | 4.0 | 6.0 | 0.00 | 0.00 | 0.00 | 82 | |
| 20260902140019 | 60 | 96 | 4.0 | 6.0 | 0.00 | 0.00 | 0.00 | 82 | |
| 20260902135027 | 60 | 98 | 2.0 | 4.0 | 0.00 | 0.00 | 0.00 | 82 | |
| 20260902134036 | 60 | 120 | 3.0 | 4.0 | 0.00 | 0.00 | 0.00 | 82 | |
| 20260902133025 | 60 | 113 | 2.0 | 4.0 | 0.00 | 0.00 | 0.00 | 81 | |
| 20260902132053 | 60 | 110 | 2.0 | 4.0 | 0.00 | 0.00 | 0.00 | 81 | |
| 20260902131024 | 60 | 105 | 4.0 | 5.0 | 0.00 | 0.00 | 0.00 | 80 | |
| 20260902130033 | 60 | 89 | 4.0 | 7.0 | 0.00 | 0.00 | 0.00 | 80 | |
| 20260902125019 | 61 | 82 | 4.0 | 7.0 | 0.00 | 0.00 | 0.00 | 79 | |
| 20260902124027 | 61 | 100 | 4.0 | 6.0 | 0.00 | 0.00 | 0.00 | 79 | |
| 20260902123035 | 61 | 96 | 3.0 | 4.0 | 0.00 | 0.00 | 0.00 | 79 | |
| 20260902122024 | 61 | 113 | 2.0 | 3.0 | 0.00 | 0.00 | 0.00 | 79 | |
| 20260902121032 | 61 | 122 | 3.0 | 5.0 | 0.00 | 0.00 | 0.00 | 79 | |
| 20260902120024 | 61 | 89 | 4.0 | 5.0 | 0.00 | 0.00 | 0.00 | 79 | |
| 20260902115033 | 61 | 90 | 3.0 | 4.0 | 0.00 | 0.00 | 0.00 | 79 | |
| 20260902114019 | 61 | 117 | 4.0 | 7.0 | 0.00 | 0.00 | 0.00 | 79 | |
| 20260902113027 | 61 | 108 | 4.0 | 6.0 | 0.00 | 0.00 | 0.00 | 79 | |
| 20260902112035 | 60 | 103 | 4.0 | 9.0 | 0.00 | 0.00 | 0.00 | 80 | |
| 20260902111024 | 60 | 108 | 4.0 | 7.0 | 0.00 | 0.00 | 0.00 | 80 | |
| 20260902110033 | 60 | 121 | 6.0 | 9.0 | 0.00 | 0.00 | 0.00 | 81 | |
| 20260902105024 | 60 | 109 | 4.0 | 7.0 | 0.00 | 0.00 | 0.00 | 82 | |
| 20260902104030 | 60 | 123 | 5.0 | 8.0 | 0.00 | 0.00 | 0.00 | 82 | |
| 20260902103019 | 59 | 133 | 4.0 | 6.0 | 0.00 | 0.00 | 0.00 | 83 | |
| 20260902102027 | 59 | 134 | 5.0 | 7.0 | 0.00 | 0.00 | 0.00 | 83 | |
| 20260902101035 | 59 | 151 | 3.0 | 5.0 | 0.00 | 0.00 | 0.00 | 83 | |
| 20260902100024 | 59 | 133 | 3.0 | 4.0 | 0.00 | 0.00 | 0.00 | 83 | |
| 20260902095033 | 59 | 139 | 4.0 | 6.0 | 0.00 | 0.00 | 0.00 | 83 | |
| 20260902094022 | 59 | 111 | 3.0 | 5.0 | 0.00 | 0.00 | 0.00 | 82 | |
| 20260902093048 | 59 | 113 | 4.0 | 5.0 | 0.00 | 0.00 | 0.00 | 81 | |
| 20260902092019 | 60 | 109 | 3.0 | 5.0 | 0.00 | 0.00 | 0.00 | 79 | |
| 20260902091027 | 60 | 88 | 4.0 | 6.0 | 0.00 | 0.00 | 0.00 | 78 | |
| 20260902090035 | 60 | 123 | 4.0 | 6.0 | 0.00 | 0.00 | 0.00 | 78 | |
| 20260902085045 | 60 | 139 | 5.0 | 6.0 | 0.00 | 0.00 | 0.00 | 79 | |
| 20260902084032 | 60 | 120 | 4.0 | 7.0 | 0.00 | 0.00 | 0.00 | 80 | |
| 20260902083041 | 60 | 151 | 4.0 | 6.0 | 0.00 | 0.00 | 0.00 | 80 | |
| 20260902082050 | 60 | 176 | 2.0 | 3.0 | 0.00 | 0.00 | 0.00 | 81 | |
| 20260902081019 | 59 | 167 | 2.0 | 4.0 | 0.00 | 0.00 | 0.00 | 82 | |
| 20260902080047 | 59 | 163 | 2.0 | 3.0 | 0.00 | 0.00 | 0.00 | 82 |